Change the Weather History Date:

Thursday, February 14, 2013

  Actual Average Record
Temperature  
Mean Temperature 41 °F 40 °F  
Max Temperature 56 °F 51 °F 72 °F (2015)
Min Temperature 26 °F 29 °F -6 °F (1903)
Degree Days  
Heating Degree Days 24 25  
Month to date heating degree days 372 371  
Since 1 July heating degree days 3119 3308  
Cooling Degree Days 0 0  
Month to date cooling degree days 0 0  
Year to date cooling degree days 0 0  
Moisture  
Dew Point 25 °F    
Average Humidity 57    
Maximum Humidity 81    
Minimum Humidity 32    
Precipitation  
Precipitation 0.00 in 0.04 in 0.61 in (1927)
Month to date precipitation T 0.47  
Year to date precipitation 0.12 1.50  
Snow  
Snow 0.00 in 0.20 in 6.20 in (1938)
Month to date snowfall 0.0 2.4  
Since 1 July snowfall 9.3 16.4  
Snow Depth 0.00 in    
Sea Level Pressure  
Sea Level Pressure 30.39 in    
Wind  
Wind Speed 3 mph (ESE)    
Max Wind Speed 14 mph    
Max Gust Speed 21 mph    
Visibility 10 miles    
Events      
T = Trace of Precipitation, MM = Missing Value Source: NWS Daily Summary

Daily Weather History Graph

Daily Weather History Graph

Search for Another Location

Airport or City:

Trip Planner

Search our weather history database for the weather conditions in past years. The results will help you decide how hot, cold, wet, or windy it might be!

Date:

Astronomy

Feb. 14, 2013 Rise Set
Actual Time 6:52 AM PST 5:34 PM PST
Civil Twilight 6:24 AM PST 6:02 PM PST
Nautical Twilight 5:52 AM PST 6:34 PM PST
Astronomical Twilight 5:21 AM PST 7:05 PM PST
Moon 8:58 AM PST (2/14) 10:41 PM PST (2/14)
Length of Visible Light 11h 38m
Length of Day
10h 42m
Waxing Crescent, 22% of the Moon is Illuminated
Feb 14
Waxing Crescent
Feb 17
First Quarter
Feb 25
Full
Mar 4
Last Quarter
Mar 11
New

Hourly Weather History & Observations

Time (PST) Temp. Windchill Dew Point Humidity Pressure Visibility Wind Dir Wind Speed Gust Speed Precip Events Conditions
12:55 AM 33.1 °F - 23.0 °F 66% 30.32 in 10.0 mi Calm Calm - N/A   Clear
1:55 AM 30.0 °F - 21.9 °F 72% 30.34 in 10.0 mi Calm Calm - N/A   Clear
2:55 AM 28.9 °F - 21.9 °F 75% 30.34 in 10.0 mi Calm Calm - N/A   Clear
3:55 AM 30.0 °F - 21.9 °F 72% 30.34 in 10.0 mi Calm Calm - N/A   Clear
4:55 AM 28.0 °F - 21.0 °F 75% 30.36 in 10.0 mi Calm Calm - N/A   Clear
5:55 AM 27.0 °F - 21.0 °F 78% 30.38 in 10.0 mi Calm Calm - N/A   Clear
6:55 AM 28.0 °F - 21.9 °F 78% 30.41 in 10.0 mi Calm Calm - N/A   Scattered Clouds
7:55 AM 30.0 °F - 21.9 °F 72% 30.44 in 10.0 mi Calm Calm - N/A   Scattered Clouds
8:55 AM 36.0 °F - 24.1 °F 62% 30.44 in 10.0 mi Calm Calm - N/A   Scattered Clouds
9:55 AM 41.0 °F - 25.0 °F 53% 30.43 in 10.0 mi Calm Calm - N/A   Scattered Clouds
10:55 AM 46.9 °F - 28.0 °F 48% 30.40 in 10.0 mi Variable 3.5 mph - N/A   Partly Cloudy
11:55 AM 50.0 °F - 28.0 °F 43% 30.38 in 10.0 mi Calm Calm - N/A   Partly Cloudy
12:55 PM 53.1 °F - 28.0 °F 38% 30.35 in 10.0 mi ESE 6.9 mph - N/A   Partly Cloudy
1:55 PM 54.0 °F - 27.0 °F 35% 30.35 in 10.0 mi ESE 8.1 mph 20.7 mph N/A   Partly Cloudy
2:55 PM 55.0 °F - 27.0 °F 34% 30.35 in 10.0 mi East 11.5 mph - N/A   Partly Cloudy
3:55 PM 53.1 °F - 27.0 °F 37% 30.36 in 10.0 mi East 6.9 mph - N/A   Partly Cloudy
4:55 PM 52.0 °F - 26.1 °F 37% 30.37 in 10.0 mi East 6.9 mph - N/A   Clear
5:55 PM 48.9 °F - 27.0 °F 43% 30.40 in 10.0 mi East 6.9 mph - N/A   Clear
6:55 PM 46.9 °F - 27.0 °F 46% 30.42 in 10.0 mi ESE 5.8 mph - N/A   Clear
7:55 PM 43.0 °F - 26.1 °F 51% 30.44 in 10.0 mi Calm Calm - N/A   Clear
8:55 PM 39.9 °F 35.8 °F 26.1 °F 58% 30.44 in 10.0 mi SSW 5.8 mph - N/A   Clear
9:55 PM 39.0 °F - 26.1 °F 60% 30.44 in 10.0 mi Calm Calm - N/A   Clear
10:55 PM 37.0 °F - 26.1 °F 65% 30.43 in 10.0 mi Calm Calm - N/A   Clear
11:55 PM 36.0 °F - 25.0 °F 64% 30.43 in 10.0 mi Calm Calm - N/A   Clear